[[{"header":{"parameterUnit":"m.s-1","parameterCategory":1,"la1":30.2991,"la2":30.254,"lo1":-89.0895,"lo2":-89.0444,"dy":0.0017,"dx":0.0017,"nx":28,"ny":28,"refTime":"2023-11-02T09:00:00:Z","depth":0,"parameterNumber":2,"parameterNumberName":"U-component_of_WINDS"},"data":[0,0,0,0,0,0,0,0,0,0,0,0,0,0,0,0,0,0,0,0,0,0,0,0,0,0,0,0,0,0,0,0,0,0,0,0,0,0,0,0,0,0,0,0,0,0,0,0,0,0,0,0,0,0,0,0,0,0,-3.5629,-3.563,0,-3.5753,-3.5755,-3.5756,-3.5648,-3.5644,-3.5639,-3.5635,-3.5763,-3.5771,-3.5778,0,0,0,0,0,0,0,0,0,0,0,0,0,-3.5298,-3.5305,-3.5629,-3.563,-3.5632,-3.5753,-3.5755,-3.5756,-3.5649,-3.5644,-3.5638,-3.5633,-3.5761,-3.577,-3.5779,0,0,0,0,0,0,0,0,0,0,0,0,0,-3.5434,-3.5307,-3.5629,-3.5593,-3.5591,-3.5753,-3.5755,-3.5757,-3.565,-3.5643,-3.5637,-3.5631,-3.5758,-3.5769,-3.578,-3.5984,0,0,-3.5815,-3.582,0,0,0,0,0,0,0,0,-3.5427,-3.5447,-3.5597,-3.5596,-3.5594,-3.5678,-3.5685,-3.5833,-3.5652,-3.5628,-3.5635,-3.5627,-3.5741,-3.5753,-3.5791,-3.599,-3.5995,-3.5816,-3.5823,-3.5827,-3.5831,0,0,0,0,0,0,0,-3.5417,-3.5441,-3.5678,-3.5599,-3.5597,-3.5571,-3.5583,-3.5713,-3.572,-3.5629,-3.5622,-3.5638,-3.5738,-3.578,-3.5793,-3.5997,-3.5815,-3.5825,-3.5832,-3.5837,-3.6369,-3.6376,0,0,0,0,0,0,-3.5412,-3.5433,-3.5674,-3.5682,-3.5492,-3.5582,-3.5595,-3.5658,-3.5718,-3.5721,-3.5644,-3.5632,-3.5764,-3.578,-3.5797,-3.604,-3.5827,-3.5838,-3.5845,-3.6362,-3.637,-3.6378,0,0,0,0,0,0,-3.5405,-3.5434,-3.5669,-3.5556,-3.5583,-3.5595,-3.5666,-3.5664,-3.5706,-3.5729,-3.573,-3.5685,-3.5759,-3.5781,-3.5938,-3.6043,-3.5843,-3.5853,-3.6353,-3.6364,-3.6374,-3.6528,0,0,0,0,0,0,-3.5396,-3.5432,-3.551,-3.5558,-3.559,-3.5809,-3.5672,-3.5671,-3.5725,-3.5712,-3.5768,-3.5771,-3.5756,-3.5922,-3.5949,-3.6055,-3.5862,-3.6344,-3.6358,-3.6371,-3.6513,-3.6542,-3.6567,0,0,0,0,0,-3.5385,-3.5548,-3.5515,-3.5544,-3.5687,-3.5815,-3.5833,-3.5812,-3.5734,-3.5812,-3.5827,-3.5769,-3.6027,-3.5939,-3.5969,-3.608,-3.6337,-3.6354,-3.637,-3.6501,-3.6537,-3.6567,0,0,0,0,0,0,-3.5513,-3.5554,-3.5517,-3.5701,-3.5755,-3.5796,-3.5894,-3.585,-3.5928,-3.5912,-3.5883,-3.5897,-3.6062,-3.6086,-3.5987,-3.628,-3.6169,-3.6193,-3.6259,-3.6293,-3.6319,-3.6311,-3.5872,0,0,0,0,0,-3.5562,-3.5662,-3.5693,-3.5852,-3.5881,-3.5884,-3.5938,-3.5917,-3.5972,-3.5995,-3.6021,-3.6077,-3.617,-3.6232,-3.6319,-3.6515,-3.6526,-3.6606,-3.6633,-3.6655,-3.6676,-3.6782,-3.6819,-3.6433,-3.6432,-3.6432,0,0,-3.5666,-3.5701,-3.5766,-3.5879,-3.5919,-3.6023,-3.5904,-3.6019,-3.6096,-3.6012,-3.6162,-3.6183,-3.6243,-3.6421,-3.65,-3.6446,-3.6785,-3.6676,-3.6694,-3.6703,-3.6803,-3.684,-3.6872,-3.6444,-3.6442,-3.644,0,0,-3.5909,-3.5945,-3.6083,-3.6124,-3.6185,-3.6185,-3.6218,-3.6266,-3.6277,-3.6427,-3.6366,-3.6457,-3.6618,-3.6663,-3.6708,-3.6967,-3.6916,-3.6995,-3.7138,-3.7242,-3.7272,-3.7299,-3.7393,-3.7426,-3.7016,-3.7016,-3.7017,0,-3.6031,-3.6186,-3.6159,-3.6279,-3.6331,-3.6258,-3.6397,-3.6439,-3.6526,-3.6563,-3.65,-3.6701,-3.6736,-3.6923,-3.6987,-3.7024,-3.7061,-3.699,-3.727,-3.7296,-3.7321,-3.741,-3.7445,-3.7026,-3.7025,-3.7024,-3.7023,0,-3.6333,-3.6441,-3.6545,-3.663,-3.6693,-3.6822,-3.6814,-3.6881,-3.6854,-3.6861,-3.7015,-3.7054,-3.7148,-3.719,-3.7165,-3.7375,-3.7339,-3.7274,-3.7163,-3.7368,-3.7451,-3.7485,-3.7039,-3.7036,-3.7033,-3.7031,0,0,-3.6663,-3.673,-3.6769,-3.6807,-3.6868,-3.6951,-3.7077,-3.7168,-3.7227,-3.7288,-3.7393,-3.753,-3.747,-3.752,-3.7499,-3.759,-3.7794,-3.7514,-3.7515,-3.7566,-3.8028,-3.8079,-3.8119,-3.776,-3.7766,-3.7772,-3.8024,0,-3.6909,-3.7128,-3.7106,-3.7314,-3.7414,-3.7346,-3.7455,-3.7505,-3.7514,-3.76,-3.7609,-3.7708,-3.762,-3.765,-3.7737,-3.7751,-3.7887,-3.7732,-3.7859,-3.7864,-3.7848,-3.8162,-3.8216,-3.8452,-3.8056,-3.8061,-3.8065,0,-3.7227,-3.73,-3.7518,-3.7563,-3.7604,-3.7703,-3.7785,-3.7868,-3.7922,-3.7922,-3.7979,-3.7942,-3.8068,-3.7952,-3.8126,-3.8021,-3.8071,-3.8086,-3.8094,-3.8107,-3.7979,-3.8185,-3.8527,-3.8563,-3.8116,-3.8112,-3.8108,0,-3.7448,-3.76,-3.775,-3.7784,-3.7841,-3.7912,-3.7939,-3.7986,-3.8043,-3.8114,-3.815,-3.8235,-3.8283,-3.835,-3.8337,-3.8254,-3.8514,-3.8397,-3.8519,-3.852,-3.8579,-3.8576,-3.8936,-3.8608,-3.8608,-3.8607,-3.8606,0,-3.7727,-3.7863,-3.785,-3.7943,-3.8093,-3.8066,-3.8216,-3.8234,-3.8277,-3.8372,-3.8317,-3.8407,-3.8384,-3.8473,-3.8464,-3.8609,-3.8631,-3.8635,-3.8631,-3.8641,-3.8641,-3.8675,-3.8659,-3.8616,-3.8614,-3.8612,-3.8611,0,-3.8,-3.7996,-3.8155,-3.8196,-3.8209,-3.8318,-3.8353,-3.844,-3.8444,-3.8565,-3.8591,-3.8598,-3.87,-3.8693,-3.8808,-3.8802,-3.8983,-3.8958,-3.8965,-3.896,-3.9083,-3.9072,-3.9479,-3.9531,-3.9168,-3.9172,-3.9174,0,-3.8179,-3.8283,-3.8334,-3.8393,-3.8425,-3.8522,-3.8579,-3.8556,-3.8617,-3.8687,-3.8766,-3.8863,-3.894,-3.9106,-3.9121,-3.9209,-3.9188,-3.9324,-3.9201,-3.9208,-3.9192,-3.9187,-3.9197,-3.9349,-3.9353,-3.9357,-3.9359,0,-3.8499,-3.8492,-3.8576,-3.866,-3.873,-3.8795,-3.8854,-3.8906,-3.8889,-3.8961,-3.9065,-3.9124,-3.9241,-3.9339,-3.9422,-3.9449,-3.9403,-3.9398,-3.9431,-3.9443,-3.9443,-3.9446,-3.9033,-3.9389,-3.9386,-3.9384,-3.9382,-3.9381,-3.8732,-3.882,-3.887,-3.8966,-3.9008,-3.9065,-3.9149,-3.9163,-3.9249,-3.9343,-3.9323,-3.944,-3.9491,-3.9598,-3.9634,-3.9725,-3.9676,-3.9723,-3.9736,-3.9748,-3.9763,-3.9427,-3.9739,-3.9739,-3.9738,-3.9737,-3.9736,0,-3.905,-3.9078,-3.9166,-3.9251,-3.9326,-3.9274,-3.9336,-3.9403,-3.9507,-3.9558,-3.9634,-3.9753,-3.9847,-3.9869,-3.9959,-4.0028,-4.0009,-4.0052,-4.0048,-4.0055,-3.9801,-3.9764,-4.0066,-4.0066,-4.0066,-4.0066,-4.0066,-4.0066,-3.9224,-3.9372,-3.9371,-3.9538,-3.9565,-3.9679,-3.972,-3.9772,-3.9812,-3.9948,-4.0026,-4.0039,-4.0079,-4.0171,-4.0254,-4.0258,-4.0295,-4.0348,-4.0344,-4.0106,-4.0073,-4.0042,-4.0007,-4.0355,-4.0356,-4.059,-4.0592,-4.0594]},{"header":{"parameterUnit":"m.s-1","parameterCategory":1,"la1":30.2991,"la2":30.254,"lo1":-89.0895,"lo2":-89.0444,"dy":0.0017,"dx":0.0017,"nx":28,"ny":28,"refTime":"2023-11-02T09:00:00:Z","depth":0,"parameterNumber":3,"parameterNumberName":"V-component_of_WINDS"},"data":[0,0,0,0,0,0,0,0,0,0,0,0,0,0,0,0,0,0,0,0,0,0,0,0,0,0,0,0,0,0,0,0,0,0,0,0,0,0,0,0,0,0,0,0,0,0,0,0,0,0,0,0,0,0,0,0,0,0,-5.012,-5.012,0,-5.0144,-5.0144,-5.0145,-5.0091,-5.0089,-5.0087,-5.0086,-5.0108,-5.011,-5.0112,0,0,0,0,0,0,0,0,0,0,0,0,0,-5.0023,-5.0025,-5.012,-5.012,-5.0121,-5.0144,-5.0144,-5.0145,-5.0091,-5.0089,-5.0087,-5.0085,-5.0107,-5.0109,-5.0112,0,0,0,0,0,0,0,0,0,0,0,0,0,-5.0058,-5.0026,-5.012,-5.0097,-5.0095,-5.0144,-5.0144,-5.0145,-5.0091,-5.0089,-5.0086,-5.0084,-5.0106,-5.0109,-5.0112,-5.0185,0,0,-5.0123,-5.0124,0,0,0,0,0,0,0,0,-5.0056,-5.0062,-5.01,-5.0098,-5.0096,-5.0112,-5.0118,-5.0158,-5.0092,-5.0093,-5.0085,-5.0082,-5.0111,-5.0114,-5.0124,-5.0186,-5.0187,-5.0123,-5.0125,-5.0126,-5.0127,0,0,0,0,0,0,0,-5.0054,-5.006,-5.0129,-5.01,-5.0098,-5.0084,-5.0086,-5.0126,-5.0116,-5.0092,-5.0088,-5.0092,-5.0109,-5.0121,-5.0124,-5.0187,-5.0123,-5.0126,-5.0128,-5.0129,-5.0305,-5.0308,0,0,0,0,0,0,-5.0055,-5.0059,-5.0129,-5.013,-5.007,-5.0087,-5.009,-5.0109,-5.0115,-5.0114,-5.0094,-5.009,-5.0116,-5.012,-5.0124,-5.0206,-5.0126,-5.0129,-5.0131,-5.0303,-5.0306,-5.0309,0,0,0,0,0,0,-5.0053,-5.0062,-5.0128,-5.0093,-5.0101,-5.0092,-5.0114,-5.0111,-5.0122,-5.0117,-5.0115,-5.0108,-5.0114,-5.012,-5.0169,-5.0206,-5.0131,-5.0134,-5.03,-5.0304,-5.0307,-5.0373,0,0,0,0,0,0,-5.005,-5.0061,-5.009,-5.0094,-5.0103,-5.0174,-5.0117,-5.0114,-5.0129,-5.0122,-5.0129,-5.0127,-5.0113,-5.0165,-5.0173,-5.021,-5.0136,-5.0296,-5.0301,-5.0306,-5.0367,-5.0378,-5.0388,0,0,0,0,0,-5.0047,-5.0107,-5.0091,-5.01,-5.0138,-5.0176,-5.0181,-5.0163,-5.0132,-5.0159,-5.0155,-5.0127,-5.0202,-5.017,-5.0179,-5.0217,-5.0294,-5.03,-5.0306,-5.0362,-5.0376,-5.0388,0,0,0,0,0,0,-5.0107,-5.0108,-5.009,-5.0154,-5.0165,-5.0167,-5.0201,-5.0179,-5.0199,-5.0192,-5.0169,-5.0171,-5.0224,-5.0226,-5.0191,-5.0286,-5.0242,-5.025,-5.0282,-5.0295,-5.0306,-5.0303,-5.0139,0,0,0,0,0,-5.0128,-5.0159,-5.0158,-5.0214,-5.0221,-5.021,-5.0226,-5.0212,-5.0222,-5.0226,-5.0226,-5.0237,-5.0262,-5.0279,-5.0303,-5.0368,-5.0367,-5.0398,-5.0409,-5.0418,-5.0424,-5.0455,-5.0468,-5.0329,-5.0329,-5.0329,0,0,-5.0171,-5.0175,-5.0196,-5.0226,-5.0233,-5.0265,-5.0215,-5.0251,-5.0273,-5.0232,-5.0278,-5.0278,-5.0288,-5.0345,-5.037,-5.0348,-5.0462,-5.0425,-5.0432,-5.0434,-5.0463,-5.0476,-5.0488,-5.0333,-5.0332,-5.0332,0,0,-5.0264,-5.0272,-5.0318,-5.0326,-5.0337,-5.0329,-5.0341,-5.0345,-5.0344,-5.039,-5.0359,-5.0385,-5.043,-5.0437,-5.0447,-5.0541,-5.0515,-5.055,-5.0604,-5.0634,-5.0645,-5.0655,-5.0685,-5.0697,-5.0557,-5.0557,-5.0557,0,-5.0315,-5.0363,-5.0344,-5.0382,-5.0394,-5.0359,-5.0404,-5.0412,-5.0431,-5.044,-5.0415,-5.0469,-5.0474,-5.053,-5.0553,-5.0563,-5.0573,-5.0548,-5.0646,-5.0655,-5.0663,-5.0692,-5.0704,-5.0561,-5.056,-5.056,-5.0559,0,-5.0423,-5.0456,-5.0492,-5.051,-5.0527,-5.0569,-5.0555,-5.0574,-5.0558,-5.0552,-5.0598,-5.0602,-5.0624,-5.0637,-5.0622,-5.0691,-5.0677,-5.065,-5.0605,-5.0681,-5.0707,-5.0719,-5.0566,-5.0565,-5.0564,-5.0563,0,0,-5.0555,-5.0561,-5.0574,-5.058,-5.059,-5.0614,-5.0653,-5.0675,-5.069,-5.0704,-5.0734,-5.0772,-5.0746,-5.0757,-5.0743,-5.0771,-5.0841,-5.0739,-5.0739,-5.0755,-5.0913,-5.0932,-5.0945,-5.0825,-5.0827,-5.0829,-5.0911,0,-5.0644,-5.0711,-5.0695,-5.076,-5.0788,-5.0754,-5.0787,-5.0796,-5.0791,-5.0813,-5.0808,-5.0834,-5.08,-5.0806,-5.0832,-5.0827,-5.0872,-5.0821,-5.085,-5.0851,-5.0845,-5.0959,-5.0979,-5.1057,-5.0922,-5.0924,-5.0925,0,-5.0758,-5.0775,-5.0843,-5.0845,-5.0856,-5.0886,-5.0903,-5.0926,-5.0934,-5.0929,-5.0941,-5.092,-5.0956,-5.0913,-5.0961,-5.0927,-5.0938,-5.0937,-5.0939,-5.0939,-5.0891,-5.0959,-5.1082,-5.1092,-5.0942,-5.0941,-5.0939,0,-5.0842,-5.0883,-5.0928,-5.0935,-5.0939,-5.096,-5.0963,-5.0969,-5.0982,-5.0997,-5.1005,-5.1024,-5.1034,-5.1049,-5.1033,-5.1004,-5.1083,-5.1039,-5.1077,-5.1077,-5.1093,-5.1091,-5.1216,-5.1105,-5.1105,-5.1105,-5.1105,0,-5.0942,-5.0984,-5.0965,-5.0992,-5.1038,-5.1018,-5.1063,-5.1062,-5.1067,-5.1092,-5.1065,-5.1089,-5.1068,-5.109,-5.1078,-5.1118,-5.1124,-5.1119,-5.1114,-5.1119,-5.1119,-5.1124,-5.1117,-5.1108,-5.1107,-5.1107,-5.1106,0,-5.1043,-5.1033,-5.1079,-5.1079,-5.108,-5.1113,-5.1112,-5.1136,-5.113,-5.1162,-5.1168,-5.1157,-5.1181,-5.1168,-5.1193,-5.1185,-5.1236,-5.1226,-5.1233,-5.1229,-5.1266,-5.1261,-5.1395,-5.1411,-5.1293,-5.1294,-5.1295,0,-5.1106,-5.1138,-5.1141,-5.1155,-5.116,-5.1185,-5.1197,-5.1179,-5.1194,-5.1204,-5.1227,-5.1249,-5.1265,-5.1304,-5.1298,-5.1317,-5.1305,-5.1351,-5.1307,-5.131,-5.1301,-5.1299,-5.13,-5.1358,-5.136,-5.1361,-5.1362,0,-5.1218,-5.1211,-5.1231,-5.1249,-5.1265,-5.1278,-5.1289,-5.1302,-5.1284,-5.1302,-5.1326,-5.1338,-5.1363,-5.1384,-5.1399,-5.1401,-5.1377,-5.1376,-5.1385,-5.1388,-5.139,-5.1386,-5.1253,-5.1372,-5.1371,-5.137,-5.137,-5.1369,-5.13,-5.1325,-5.133,-5.1352,-5.1358,-5.1369,-5.139,-5.1386,-5.1406,-5.1425,-5.1413,-5.144,-5.1446,-5.1464,-5.1468,-5.1489,-5.147,-5.1484,-5.1487,-5.149,-5.1493,-5.1389,-5.1492,-5.1492,-5.1491,-5.1491,-5.1491,0,-5.1407,-5.1408,-5.1429,-5.1445,-5.1462,-5.1439,-5.145,-5.1465,-5.149,-5.1497,-5.1513,-5.1539,-5.1559,-5.1554,-5.1572,-5.1589,-5.1579,-5.1594,-5.1591,-5.1591,-5.1511,-5.15,-5.1602,-5.1602,-5.1602,-5.1602,-5.1602,-5.1602,-5.1465,-5.1504,-5.1497,-5.1539,-5.154,-5.1566,-5.1574,-5.1582,-5.1587,-5.1618,-5.1634,-5.1631,-5.1633,-5.165,-5.1667,-5.1665,-5.1671,-5.169,-5.1683,-5.1608,-5.1597,-5.1586,-5.1575,-5.1692,-5.1692,-5.1761,-5.1762,-5.1762]}]]